Location: Fredericton
(45.9636°N, 66.6431°W)
Time: 04:30:47
(UTC-03:00)

Envisat - Pass Details

Date: 23 January 2022
Orbit: 764 x 765 km, 98.2° (Epoch: 16 May)

Event Time Altitude Azimuth Distance (km) Brightness Sun altitude
Rises 05:29:40 0° 13° (NNE) 3,241 6.4 -25.6°
Reaches altitude 10° 05:31:59 10° 13° (NNE) 2,311 5.6 -25.2°
Maximum altitude 05:37:05 87° 286° (WNW) 772 2.9 -24.3°
Drops below altitude 10° 05:42:10 10° 197° (SSW) 2,296 5.3 -23.5°
Sets 05:44:27 0° 197° (SSW) 3,218 6.1 -23.1°
